Powrót do katalogu

STARLINK-36414

AktywnyŁącznośćVLEO
NORAD 67468·PAYLOAD·🇺🇸 United States

Wystrzelony Jan 14, 2026 z Cape Canaveral Space Force Station

Loading…

Następne Przeloty (najbliższe 24 godziny)

TLE

ŚwieżeSource: CelesTrak SupGP

Epoka: Sep 15, 2026, 04:05 UTC

1 67468C 26008Z   26258.17062500 -.00037825  00000+0 -13703-2 0  2581
2 67468  42.9997 214.8396 0001242 269.4471 108.0982 15.27590529    12

Śledź STARLINK-36414 w czasie rzeczywistym z AllMySat

Download on the App Store